When you browse on this site, cookies collect data to enhance your experience and personalize the content and advertising you see.
Visit our Privacy Policy to learn more. By continuing to use the site, you agree to this use of cookies and data.
  • Em Portugal
  • Lista de países
  • Para 7 dias
  • Temperatura da água
  • Mapa do tempo
  • Widgets de tempo
  • user-avatar
    Iniciar Sessão

    Previsão horária em Kusur

    Hoje, 23 Setembro, Segunda-feira

    Tempo Temperatura Precipitação Vento Pressão Humidade
    00:00 -1°C° 0 mm 2 m/s 584 mmHg 54%
    01:00 -1°C° 0 mm 2 m/s 584 mmHg 55%
    02:00 +1°C° 0 mm 2 m/s 584 mmHg 57%
    03:00 +1°C° 0 mm 2 m/s 584 mmHg 57%
    04:00 +1°C° 0 mm 2 m/s 584 mmHg 56%
    05:00 +1°C° 0 mm 2 m/s 584 mmHg 55%
    06:00 +1°C° 0 mm 2 m/s 584 mmHg 55%
    07:00 +3°C° 0 mm 2 m/s 585 mmHg 54%
    08:00 +5°C° 0 mm 2 m/s 586 mmHg 53%
    09:00 +8°C° 0 mm 2 m/s 587 mmHg 50%
    10:00 +8°C° 0 mm 2 m/s 587 mmHg 49%
    11:00 +9°C° 0 mm 3 m/s 587 mmHg 48%
    12:00 +10°C° 0 mm 3 m/s 587 mmHg 47%
    13:00 +10°C° 0 mm 3 m/s 587 mmHg 47%
    14:00 +10°C° 0 mm 2 m/s 587 mmHg 46%
    15:00 +10°C° 0 mm 2 m/s 587 mmHg 45%
    16:00 +8°C° 0 mm 2 m/s 585 mmHg 54%
    17:00 +5°C° 0 mm 2 m/s 584 mmHg 63%
    18:00 +4°C° 0 mm 1 m/s 583 mmHg 71%
    19:00 +4°C° 0 mm 1 m/s 583 mmHg 68%
    20:00 +2°C° 0 mm 2 m/s 583 mmHg 65%
    21:00 +2°C° 0 mm 2 m/s 584 mmHg 62%
    22:00 +2°C° 0 mm 2 m/s 584 mmHg 62%
    23:00 +2°C° 0 mm 2 m/s 583 mmHg 61%

    Amanhã, 24 Setembro, Terça-feira

    Tempo Temperatura Precipitação Vento Pressão Humidade
    00:00 +2°C° 0 mm 2 m/s 583 mmHg 60%
    01:00 +2°C° 0 mm 2 m/s 583 mmHg 61%
    02:00 +2°C° 0 mm 2 m/s 583 mmHg 61%
    03:00 +2°C° 0 mm 2 m/s 583 mmHg 61%
    04:00 +2°C° 0 mm 2 m/s 583 mmHg 62%
    05:00 +2°C° 0 mm 2 m/s 583 mmHg 62%
    06:00 +3°C° 0 mm 1 m/s 583 mmHg 63%
    07:00 +4°C° 0 mm 2 m/s 585 mmHg 59%
    08:00 +7°C° 0 mm 2 m/s 586 mmHg 55%
    09:00 +9°C° 0 mm 2 m/s 587 mmHg 51%
    10:00 +10°C° 0 mm 3 m/s 587 mmHg 49%
    11:00 +11°C° 0 mm 3 m/s 587 mmHg 48%
    12:00 +11°C° 0 mm 3 m/s 587 mmHg 47%
    13:00 +11°C° 0 mm 3 m/s 587 mmHg 48%
    14:00 +11°C° 0 mm 3 m/s 587 mmHg 48%
    15:00 +12°C° 0 mm 2 m/s 587 mmHg 49%
    16:00 +9°C° 0 mm 2 m/s 585 mmHg 59%
    17:00 +6°C° 0 mm 2 m/s 584 mmHg 69%
    18:00 +5°C° 0 mm 1 m/s 583 mmHg 79%
    19:00 +5°C° 0 mm 1 m/s 583 mmHg 76%
    20:00 +4°C° 0 mm 2 m/s 583 mmHg 73%
    21:00 +4°C° 0 mm 2 m/s 583 mmHg 69%
    22:00 +4°C° 0 mm 2 m/s 583 mmHg 71%
    23:00 +4°C° 0 mm 2 m/s 583 mmHg 72%

    Depois de amanhã, 25 Setembro, Quarta-feira

    Tempo Temperatura Precipitação Vento Pressão Humidade
    00:00 +3°C° 0 mm 2 m/s 582 mmHg 73%
    01:00 +3°C° 0 mm 2 m/s 582 mmHg 72%
    02:00 +3°C° 0 mm 2 m/s 582 mmHg 72%
    03:00 +3°C° 0 mm 2 m/s 582 mmHg 71%
    04:00 +4°C° 0 mm 2 m/s 582 mmHg 70%
    05:00 +4°C° 0 mm 2 m/s 582 mmHg 69%
    06:00 +4°C° 0 mm 2 m/s 582 mmHg 68%
    07:00 +6°C° 0 mm 2 m/s 584 mmHg 61%
    08:00 +9°C° 0 mm 2 m/s 585 mmHg 55%
    09:00 +12°C° 0 mm 2 m/s 586 mmHg 48%
    10:00 +12°C° 0 mm 3 m/s 587 mmHg 48%
    11:00 +13°C° 0 mm 3 m/s 587 mmHg 47%
    12:00 +14°C° 0 mm 3 m/s 587 mmHg 47%
    13:00 +14°C° 0 mm 3 m/s 587 mmHg 47%
    14:00 +14°C° 0 mm 3 m/s 587 mmHg 47%
    15:00 +14°C° 0 mm 3 m/s 587 mmHg 47%
    16:00 +12°C° 0 mm 2 m/s 586 mmHg 55%
    17:00 +9°C° 0 mm 2 m/s 585 mmHg 63%
    18:00 +7°C° 0 mm 2 m/s 584 mmHg 71%
    19:00 +7°C° 0 mm 2 m/s 584 mmHg 70%
    20:00 +6°C° 0 mm 2 m/s 584 mmHg 69%
    21:00 +6°C° 0 mm 2 m/s 584 mmHg 67%
    22:00 +6°C° 0 mm 2 m/s 584 mmHg 69%
    23:00 +5°C° 0 mm 2 m/s 584 mmHg 70%

    26 Setembro, Quinta-feira

    Tempo Temperatura Precipitação Vento Pressão Humidade
    00:00 +5°C° 0 mm 2 m/s 584 mmHg 71%
    01:00 +5°C° 0 mm 2 m/s 584 mmHg 71%
    02:00 +5°C° 0 mm 2 m/s 584 mmHg 72%
    03:00 +5°C° 0 mm 2 m/s 584 mmHg 72%
    04:00 +5°C° 0 mm 2 m/s 584 mmHg 73%
    05:00 +5°C° 0 mm 2 m/s 584 mmHg 73%
    06:00 +5°C° 0 mm 2 m/s 583 mmHg 74%
    07:00 +7°C° 0 mm 2 m/s 585 mmHg 68%
    08:00 +9°C° 0 mm 3 m/s 586 mmHg 63%
    09:00 +11°C° 0 mm 3 m/s 587 mmHg 57%
    10:00 +12°C° 0 mm 4 m/s 587 mmHg 56%
    11:00 +13°C° 0 mm 4 m/s 587 mmHg 55%
    12:00 +14°C° 0 mm 5 m/s 588 mmHg 53%
    13:00 +14°C° 0 mm 4 m/s 587 mmHg 53%
    14:00 +14°C° 0 mm 4 m/s 587 mmHg 52%
    15:00 +13°C° 0 mm 3 m/s 587 mmHg 52%
    16:00 +12°C° 0 mm 3 m/s 586 mmHg 59%
    17:00 +10°C° 0 mm 2 m/s 585 mmHg 67%
    18:00 +9°C° 0 mm 1 m/s 584 mmHg 75%
    19:00 +9°C° 0 mm 1 m/s 584 mmHg 76%
    20:00 +7°C° 0 mm 2 m/s 584 mmHg 78%
    21:00 +7°C° 0 mm 2 m/s 584 mmHg 80%
    22:00 +7°C° 0 mm 2 m/s 584 mmHg 82%
    23:00 +7°C° 0 mm 2 m/s 584 mmHg 84%

    27 Setembro, Sexta-feira

    Tempo Temperatura Precipitação Vento Pressão Humidade
    00:00 +6°C° 0 mm 2 m/s 584 mmHg 87%
    01:00 +6°C° 0 mm 2 m/s 584 mmHg 87%
    02:00 +6°C° 0 mm 2 m/s 583 mmHg 86%
    03:00 +5°C° 0 mm 2 m/s 583 mmHg 86%
    04:00 +5°C° 0 mm 2 m/s 583 mmHg 86%
    05:00 +5°C° 0 mm 2 m/s 583 mmHg 86%
    06:00 +5°C° 0 mm 2 m/s 583 mmHg 86%
    07:00 +8°C° 0 mm 2 m/s 584 mmHg 80%
    08:00 +10°C° 0 mm 2 m/s 585 mmHg 74%
    09:00 +13°C° 0 mm 2 m/s 587 mmHg 68%
    10:00 +13°C° 0 mm 3 m/s 587 mmHg 65%
    11:00 +14°C° 0 mm 3 m/s 587 mmHg 62%
    12:00 +14°C° 0 mm 3 m/s 587 mmHg 59%
    13:00 +16°C° 0 mm 3 m/s 587 mmHg 57%
    14:00 +16°C° 0 mm 3 m/s 587 mmHg 55%
    15:00 +16°C° 0 mm 3 m/s 586 mmHg 54%
    16:00 +14°C° 0 mm 2 m/s 586 mmHg 61%
    17:00 +12°C° 0 mm 2 m/s 585 mmHg 69%
    18:00 +10°C° 0 mm 1 m/s 584 mmHg 76%
    19:00 +10°C° 0 mm 1 m/s 584 mmHg 76%
    20:00 +10°C° 0 mm 1 m/s 584 mmHg 75%
    21:00 +10°C° 0 mm 1 m/s 584 mmHg 75%
    22:00 +10°C° 0 mm 1 m/s 584 mmHg 77%
    23:00 +10°C° 0 mm 1 m/s 584 mmHg 80%

    28 Setembro, Sábado

    Tempo Temperatura Precipitação Vento Pressão Humidade
    00:00 +9°C° 0 mm 2 m/s 584 mmHg 83%
    01:00 +8°C° 0 mm 2 m/s 584 mmHg 85%
    02:00 +7°C° 0 mm 2 m/s 583 mmHg 87%
    03:00 +7°C° 0 mm 2 m/s 582 mmHg 89%
    04:00 +6°C° 0 mm 2 m/s 582 mmHg 89%
    05:00 +6°C° 0 mm 2 m/s 582 mmHg 89%
    06:00 +6°C° 0 mm 2 m/s 582 mmHg 89%
    07:00 +8°C° 0 mm 2 m/s 583 mmHg 81%
    08:00 +10°C° 0 mm 3 m/s 583 mmHg 74%
    09:00 +12°C° 0 mm 3 m/s 584 mmHg 66%
    10:00 +11°C° 0.8 mm 3 m/s 584 mmHg 74%
    11:00 +10°C° 0.8 mm 4 m/s 584 mmHg 83%
    12:00 +8°C° 0.8 mm 4 m/s 583 mmHg 91%
    13:00 +9°C° 1.5 mm 3 m/s 583 mmHg 86%
    14:00 +9°C° 1.5 mm 3 m/s 584 mmHg 81%
    15:00 +9°C° 1.5 mm 2 m/s 584 mmHg 76%
    16:00 +8°C° 0.1 mm 2 m/s 584 mmHg 80%
    17:00 +7°C° 0.1 mm 2 m/s 584 mmHg 83%
    18:00 +6°C° 0.1 mm 2 m/s 583 mmHg 86%
    19:00 +6°C° 0 mm 2 m/s 584 mmHg 85%
    20:00 +5°C° 0 mm 2 m/s 584 mmHg 84%
    21:00 +5°C° 0 mm 2 m/s 584 mmHg 84%
    22:00 +5°C° 0 mm 2 m/s 584 mmHg 83%
    23:00 +5°C° 0 mm 1 m/s 584 mmHg 83%
    Mostrar mais